Regional Weather Roundup
Issued by NWS

Home | Current Version | Previous Version | Text Only | Print | Product List | Glossary Off
Versions: 1 2 3 4 5 6 7 8 9 10 11 12 13 14 15 16 17 18 19 20 21 22 23 24 25 26 27 28 29 30 31 32 33 34 35 36 37 38 39 40 41 42 43 44 45 46 47 48 49 50

000
ASUS45 KTFX 022010
RWRMT
MONTANA REGIONAL WEATHER ROUNDUP
NATIONAL WEATHER SERVICE GREAT FALLS MT
200 PM MDT MON MAY 02 2016

NOTE: "FAIR" INDICATES FEW OR NO CLOUDS BELOW 12000 FEET WITH NO
SIGNIFICANT WEATHER AND/OR OBSTRUCTIONS TO VISIBILITY.

MTZ001>007-043-022100-
WEST OF THE DIVIDE

CITY           SKY/WX    TMP DP  RH WIND       PRES   REMARKS
KALISPELL        N/A     69  39  33 S6        30.14F
MISSOULA         N/A     68  36  30 CALM      30.16F
BUTTE          SUNNY     63   5  10 W7        30.21F
MULLAN PASS      N/A     60  27  28 CALM      30.24F
$$

MTZ008-052>055-022100-
SOUTHWEST MONTANA

CITY           SKY/WX    TMP DP  RH WIND       PRES   REMARKS
BOZEMAN        SUNNY     64  33  31 W6        30.20F
DILLON         SUNNY     63  20  19 CALM      30.20F
ENNIS          SUNNY     63  25  23 N8        30.25F
$$

MTZ009-010-012-014-046-048-049-054-022100-
EAST SLOPES AND CENTRAL MONTANA

CITY           SKY/WX    TMP DP  RH WIND       PRES   REMARKS
CUT BANK         N/A     68  31  25 VRB3      30.14F
MALMSTROM AFB  SUNNY     66  34  30 NW3       30.16F
HELENA         SUNNY     67  30  25 VRB3      30.17F
$$

MTZ011-013-016-021-045-047-050-051-022100-
NORTH CENTRAL MONTANA

CITY           SKY/WX    TMP DP  RH WIND       PRES   REMARKS
HAVRE          SUNNY     70  40  33 W7        30.12F
LEWISTOWN      SUNNY     65  31  28 NW5       30.17F
N BAR RANCH      N/A     66  32  28 N10       30.18F
$$

MTZ017>020-022>027-061-062-022100-
NORTHEAST MONTANA

CITY           SKY/WX    TMP DP  RH WIND       PRES   REMARKS
GLASGOW        SUNNY     74  36  25 NW13      30.06F
JORDAN           N/A     70  38  31 N10G22    30.09F
SIDNEY         SUNNY     73  36  25 N20G28    30.00F
WOLF POINT     SUNNY     77  37  23 NW15G22   30.02F
$$

MTZ028>42-056>058-022100-
SOUTHCENTRAL AND SOUTHEAST MONTANA

CITY           SKY/WX    TMP DP  RH WIND       PRES   REMARKS
BAKER          CLOUDY    67  34  29 NW18G30   30.04F
BILLINGS       MOSUNNY   68  30  24 VRB5      30.14F
LIVINGSTON     SUNNY     65  25  22 W6        30.17F
MILES CITY     MOSUNNY   70  36  28 NW13      30.08F
$$

REGIONAL REPORTS...DAKOTAS

CITY           SKY/WX    TMP DP  RH WIND       PRES   REMARKS
WILLISTON      SUNNY     74  32  21 NE17G31   30.00F
MINOT          MOSUNNY   73  33  23 NE10G22   29.99S
DICKINSON      MOSUNNY   68  32  26 N21G28    29.96S
BEACH            N/A     68  32  26 N23G31    30.04F
CROSBY           N/A     72  25  17 N13G22    30.03S
WATFORD CITY     N/A     72  32  23 N17G36    30.00F
BISMARCK       MOSUNNY   63  44  50 NE5       29.99S
GRAND FORKS    MOSUNNY   71  30  21 E8        29.97F
FARGO          SUNNY     68  26  20 E3        29.99S
BUFFALO SD       N/A     65  35  33 NW21      29.97S
RAPID CITY     MOSUNNY   66  33  29 N23G35    30.05F
$$

REGIONAL REPORTS...WYOMING/IDAHO/WASHINGTON

CITY           SKY/WX    TMP DP  RH WIND       PRES   REMARKS
GILLETTE       SUNNY     61  33  35 NW18G24   30.11F
SHERIDAN       SUNNY     64  36  35 NW8       30.15F
BUFFALO WY       N/A    N/A N/A N/A MISG      30.16F
CODY           SUNNY     61  28  29 N6        30.18F
YELLOWSTONE LA   N/A     47  17  30 SE6       30.29F
IDAHO FALLS    SUNNY     63  21  20 VRB7      30.23F
SALMON           N/A    N/A N/A N/A MISG        N/A
BOISE            N/A     71  27  19 E6        30.15F
SPOKANE          N/A     74  40  29 W5        30.11F
$$

REGIONAL REPORTS...ALBERTA

CITY           SKY/WX    TMP DP  RH WIND       PRES   REMARKS
EDMONTON       MOSUNNY   79  41  25 S9        30.03F
CALGARY        MOSUNNY   75  32  20 SE14      30.09F
LETHBRIDGE     MOSUNNY   75  32  20 SW3G20    30.10F
MEDICINE HAT   MOSUNNY   75  34  22 SW7       30.09F
WATERTON GATE    N/A     72  25  17 SW7         N/A
MILK RIVER       N/A     70  34  26 SW3         N/A
$$

REGIONAL REPORTS...SASKATCHEWAN

CITY           SKY/WX    TMP DP  RH WIND       PRES   REMARKS
SWIFT CURRENT  SUNNY     73  32  21 N10G20    30.05F
REGINA         MOSUNNY   73  30  20 N16       30.02S
SASKATOON      PTSUNNY   77  36  22 N8        30.03F
CYPRESS HILLS    N/A     66  30  26 NW6         N/A
VAL MARIE        N/A     73  34  23 NW14        N/A
ROCKGLEN         N/A     72  34  25 N12G18      N/A
$$



USA.gov is the U.S. government's official web portal to all federal, state and local government web resources and services.